TAP1716 LPMA-LPFR

Flight info

Callsign TAP1716
Flight time 1h 19m
Altitude 36000
Route DEGUN DCT NARTA DCT GIMAL
Aircraft A320/M-SDE3FGHIJ1RWXYZ/LB1

Departure

Time 2026-05-06 16:01
Airport Cristiano Ronaldo International Airport (LPMA)

Arrival

Time 2026-05-06 17:20
Airport Faro - Gago Coutinho International Airport (LPFR)
Time Latitude Longitude Altitude Speed Heading
2026-05-06 15:40 32.69333 -16.77693 169 ft 0 kts 138°
2026-05-06 15:55 32.69336 -16.77696 169 ft 3 kts 138°
2026-05-06 15:55 32.69355 -16.77717 169 ft 3 kts 138°
2026-05-06 15:55 32.69372 -16.77733 169 ft 4 kts 161°
2026-05-06 15:55 32.69392 -16.77730 169 ft 3 kts 226°
2026-05-06 15:56 32.69405 -16.77714 169 ft 0 kts 226°
2026-05-06 15:57 32.69394 -16.77727 169 ft 9 kts 226°
2026-05-06 15:58 32.69349 -16.77782 169 ft 9 kts 225°
2026-05-06 15:58 32.69310 -16.77830 169 ft 8 kts 226°
2026-05-06 15:58 32.69288 -16.77883 169 ft 10 kts 267°
2026-05-06 15:58 32.69289 -16.77998 169 ft 15 kts 266°
2026-05-06 15:59 32.69233 -16.78097 167 ft 15 kts 224°
2026-05-06 15:59 32.69127 -16.78219 161 ft 27 kts 225°
2026-05-06 15:59 32.68988 -16.78367 154 ft 23 kts 212°
2026-05-06 15:59 32.68904 -16.78413 153 ft 9 kts 204°
2026-05-06 16:00 32.68905 -16.78460 153 ft 5 kts 337°
2026-05-06 16:00 32.68946 -16.78431 153 ft 11 kts 46°
2026-05-06 16:00 32.69071 -16.78284 158 ft 53 kts 44°
2026-05-06 16:00 32.69497 -16.77790 173 ft 116 kts 45°
2026-05-06 16:01 32.70169 -16.76991 391 ft 146 kts 41°
2026-05-06 16:01 32.70806 -16.76067 1052 ft 148 kts 62°
2026-05-06 16:01 32.71017 -16.74831 1678 ft 160 kts 92°
2026-05-06 16:01 32.70708 -16.73539 2249 ft 168 kts 106°
2026-05-06 16:02 32.70278 -16.72155 2553 ft 190 kts 106°
2026-05-06 16:02 32.69792 -16.70587 2841 ft 215 kts 109°
2026-05-06 16:02 32.69247 -16.68829 3255 ft 239 kts 106°
2026-05-06 16:02 32.68649 -16.66881 3730 ft 262 kts 107°
2026-05-06 16:03 32.68006 -16.64803 4511 ft 273 kts 107°
2026-05-06 16:03 32.67340 -16.62661 5370 ft 280 kts 108°
2026-05-06 16:03 32.66662 -16.60480 6245 ft 284 kts 109°
2026-05-06 16:03 32.65998 -16.58245 7075 ft 289 kts 103°
2026-05-06 16:04 32.65817 -16.55871 7897 ft 290 kts 82°
2026-05-06 16:04 32.66326 -16.53573 8767 ft 288 kts 61°
2026-05-06 16:04 32.67444 -16.51633 9666 ft 285 kts 42°
2026-05-06 16:04 32.68876 -16.50003 10434 ft 291 kts 40°
2026-05-06 16:05 32.70404 -16.48283 10708 ft 314 kts 41°
2026-05-06 16:05 32.72047 -16.46429 10933 ft 338 kts 40°
2026-05-06 16:05 32.73805 -16.44433 11079 ft 361 kts 41°
2026-05-06 16:05 32.75673 -16.42306 11224 ft 382 kts 41°
2026-05-06 16:06 32.77616 -16.40089 11673 ft 391 kts 41°
2026-05-06 16:06 32.79587 -16.37825 12262 ft 396 kts 42°
2026-05-06 16:06 32.80902 -16.36309 12652 ft 399 kts 41°
2026-05-06 16:06 32.82906 -16.33997 13242 ft 404 kts 41°
2026-05-06 16:07 32.84938 -16.31661 13809 ft 409 kts 41°
2026-05-06 16:07 32.86995 -16.29303 14329 ft 413 kts 41°
2026-05-06 16:07 32.89071 -16.26925 14862 ft 416 kts 41°
2026-05-06 16:07 32.91161 -16.24527 15383 ft 419 kts 41°
2026-05-06 16:08 32.93954 -16.21320 16059 ft 423 kts 41°
2026-05-06 16:08 32.95387 -16.19675 16406 ft 425 kts 41°
2026-05-06 16:08 32.97523 -16.17220 16897 ft 428 kts 41°
2026-05-06 16:08 32.99670 -16.14749 17401 ft 431 kts 41°
2026-05-06 16:09 33.01831 -16.12260 17893 ft 434 kts 41°
2026-05-06 16:09 33.04009 -16.09755 18375 ft 437 kts 41°
2026-05-06 16:09 33.06201 -16.07232 18800 ft 439 kts 41°
2026-05-06 16:09 33.08402 -16.04695 19223 ft 441 kts 40°
2026-05-06 16:10 33.10610 -16.02146 19650 ft 443 kts 40°
2026-05-06 16:10 33.12825 -15.99584 20073 ft 444 kts 40°
2026-05-06 16:10 33.15052 -15.97007 20417 ft 448 kts 40°
2026-05-06 16:10 33.17296 -15.94408 20767 ft 451 kts 40°
2026-05-06 16:11 33.19551 -15.91795 21169 ft 453 kts 40°
2026-05-06 16:11 33.21816 -15.89172 21558 ft 454 kts 40°
2026-05-06 16:11 33.24059 -15.86571 21924 ft 456 kts 40°
2026-05-06 16:11 33.26340 -15.83922 22288 ft 458 kts 40°
2026-05-06 16:12 33.28659 -15.81231 22644 ft 460 kts 40°
2026-05-06 16:12 33.30928 -15.78597 22981 ft 462 kts 40°
2026-05-06 16:12 33.33233 -15.75914 23309 ft 464 kts 40°
2026-05-06 16:12 33.35545 -15.73220 23640 ft 465 kts 40°
2026-05-06 16:13 33.37867 -15.70512 23924 ft 467 kts 40°
2026-05-06 16:13 33.40198 -15.67788 24211 ft 468 kts 40°
2026-05-06 16:13 33.42529 -15.65064 24505 ft 469 kts 39°
2026-05-06 16:13 33.44884 -15.62359 24787 ft 470 kts 39°
2026-05-06 16:14 33.47270 -15.59674 25074 ft 471 kts 38°
2026-05-06 16:14 33.49665 -15.57007 25469 ft 469 kts 38°
2026-05-06 16:14 33.52051 -15.54355 25900 ft 467 kts 38°
2026-05-06 16:14 33.54421 -15.51710 26343 ft 464 kts 38°
2026-05-06 16:15 33.56772 -15.49074 26788 ft 462 kts 38°
2026-05-06 16:15 33.59106 -15.46441 27237 ft 459 kts 38°
2026-05-06 16:15 33.61426 -15.43817 27687 ft 457 kts 38°
2026-05-06 16:15 33.63731 -15.41209 28150 ft 455 kts 38°
2026-05-06 16:16 33.66027 -15.38608 28618 ft 452 kts 38°
2026-05-06 16:16 33.68309 -15.36021 29081 ft 450 kts 38°
2026-05-06 16:16 33.70580 -15.33446 29544 ft 448 kts 37°
2026-05-06 16:16 33.72838 -15.30885 30016 ft 445 kts 37°
2026-05-06 16:17 33.75084 -15.28334 30426 ft 443 kts 37°
2026-05-06 16:17 33.77323 -15.25794 30770 ft 443 kts 37°
2026-05-06 16:17 33.79561 -15.23253 31122 ft 442 kts 37°
2026-05-06 16:17 33.81792 -15.20720 31474 ft 441 kts 37°
2026-05-06 16:18 33.84020 -15.18190 31787 ft 441 kts 37°
2026-05-06 16:18 33.86249 -15.15657 32103 ft 441 kts 37°
2026-05-06 16:18 33.88477 -15.13120 32418 ft 441 kts 38°
2026-05-06 16:18 33.90703 -15.10581 32735 ft 441 kts 38°
2026-05-06 16:19 33.92930 -15.08034 33040 ft 441 kts 38°
2026-05-06 16:19 33.95151 -15.05487 33357 ft 441 kts 38°
2026-05-06 16:19 33.97375 -15.02941 33655 ft 441 kts 38°
2026-05-06 16:19 33.99600 -15.00399 33964 ft 441 kts 38°
2026-05-06 16:20 34.01825 -14.97853 34246 ft 441 kts 38°
2026-05-06 16:20 34.04052 -14.95305 34521 ft 441 kts 38°
2026-05-06 16:20 34.06275 -14.92761 34812 ft 441 kts 38°
2026-05-06 16:20 34.08502 -14.90212 35031 ft 442 kts 38°
2026-05-06 16:21 34.10729 -14.87653 35306 ft 441 kts 38°
2026-05-06 16:21 34.12950 -14.85095 35591 ft 441 kts 38°
2026-05-06 16:21 34.15162 -14.82544 35865 ft 440 kts 38°
2026-05-06 16:21 34.17374 -14.79998 36048 ft 440 kts 37°
2026-05-06 16:22 34.21835 -14.74877 36082 ft 444 kts 37°
2026-05-06 16:22 34.26309 -14.69715 36089 ft 445 kts 38°
2026-05-06 16:23 34.30773 -14.64535 36090 ft 445 kts 38°
2026-05-06 16:23 34.35244 -14.59354 36094 ft 445 kts 38°
2026-05-06 16:24 34.39723 -14.54180 36117 ft 445 kts 38°
2026-05-06 16:24 34.44198 -14.48986 36098 ft 446 kts 38°
2026-05-06 16:25 34.48680 -14.43770 36087 ft 447 kts 38°
2026-05-06 16:25 34.53133 -14.38571 36084 ft 447 kts 38°
2026-05-06 16:26 34.57642 -14.33301 36081 ft 447 kts 38°
2026-05-06 16:26 34.62103 -14.28097 36084 ft 448 kts 38°
2026-05-06 16:27 34.66590 -14.22859 36108 ft 448 kts 38°
2026-05-06 16:27 34.71075 -14.17597 36100 ft 449 kts 38°
2026-05-06 16:28 34.75562 -14.12317 36087 ft 449 kts 38°
2026-05-06 16:28 34.80057 -14.07024 36076 ft 450 kts 38°
2026-05-06 16:29 34.84566 -14.01727 36071 ft 450 kts 38°
2026-05-06 16:29 34.89077 -13.96421 36074 ft 451 kts 38°
2026-05-06 16:30 34.92845 -13.91965 36081 ft 451 kts 38°
2026-05-06 16:30 34.98070 -13.85765 36104 ft 451 kts 38°
2026-05-06 16:31 35.02576 -13.80434 36084 ft 452 kts 38°
2026-05-06 16:31 35.07084 -13.75082 36065 ft 453 kts 39°
2026-05-06 16:32 35.11600 -13.69708 36064 ft 453 kts 39°
2026-05-06 16:32 35.16116 -13.64324 36066 ft 454 kts 39°
2026-05-06 16:33 35.20634 -13.58925 36061 ft 454 kts 39°
2026-05-06 16:34 35.27421 -13.50823 36065 ft 455 kts 39°
2026-05-06 16:34 35.31947 -13.45403 36063 ft 456 kts 39°
2026-05-06 16:35 35.36484 -13.39961 36050 ft 457 kts 39°
2026-05-06 16:35 35.41036 -13.34493 36048 ft 459 kts 39°
2026-05-06 16:36 35.45560 -13.29039 36051 ft 459 kts 39°
2026-05-06 16:36 35.50108 -13.23539 36054 ft 460 kts 39°
2026-05-06 16:37 35.54667 -13.18037 36073 ft 459 kts 39°
2026-05-06 16:37 35.59252 -13.12498 36098 ft 459 kts 39°
2026-05-06 16:38 35.63807 -13.06980 36065 ft 460 kts 39°
2026-05-06 16:38 35.68334 -13.01484 36055 ft 461 kts 39°
2026-05-06 16:39 35.72893 -12.95926 36049 ft 461 kts 40°
2026-05-06 16:39 35.77450 -12.90361 36049 ft 462 kts 40°
2026-05-06 16:40 35.82016 -12.84788 36072 ft 462 kts 40°
2026-05-06 16:40 35.86579 -12.79217 36070 ft 462 kts 40°
2026-05-06 16:41 35.91136 -12.73632 36060 ft 462 kts 40°
2026-05-06 16:41 35.95700 -12.68035 36046 ft 463 kts 40°
2026-05-06 16:42 36.00278 -12.62416 36048 ft 464 kts 40°
2026-05-06 16:42 36.04427 -12.56260 36034 ft 473 kts 55°
2026-05-06 16:43 36.06886 -12.48664 36035 ft 483 kts 74°
2026-05-06 16:43 36.08318 -12.40543 36053 ft 484 kts 75°
2026-05-06 16:44 36.09740 -12.32399 36034 ft 485 kts 75°
2026-05-06 16:44 36.11160 -12.24236 36031 ft 486 kts 75°
2026-05-06 16:45 36.12570 -12.16055 36029 ft 487 kts 75°
2026-05-06 16:45 36.13977 -12.07869 36043 ft 487 kts 75°
2026-05-06 16:46 36.15378 -11.99679 36051 ft 487 kts 76°
2026-05-06 16:46 36.16778 -11.91476 36040 ft 487 kts 76°
2026-05-06 16:47 36.18175 -11.83261 36036 ft 488 kts 76°
2026-05-06 16:47 36.19573 -11.75047 36036 ft 488 kts 76°
2026-05-06 16:48 36.20952 -11.66820 36030 ft 488 kts 76°
2026-05-06 16:48 36.22323 -11.58583 36027 ft 488 kts 76°
2026-05-06 16:49 36.23698 -11.50354 36029 ft 488 kts 76°
2026-05-06 16:49 36.25069 -11.42119 36028 ft 488 kts 76°
2026-05-06 16:50 36.26433 -11.33875 36026 ft 488 kts 76°
2026-05-06 16:50 36.27790 -11.25627 36031 ft 489 kts 77°
2026-05-06 16:51 36.29147 -11.17367 36023 ft 489 kts 77°
2026-05-06 16:51 36.30488 -11.09152 36019 ft 489 kts 77°
2026-05-06 16:52 36.31835 -11.00879 36018 ft 490 kts 77°
2026-05-06 16:52 36.33178 -10.92608 36025 ft 490 kts 77°
2026-05-06 16:53 36.34506 -10.84315 36006 ft 490 kts 78°
2026-05-06 16:53 36.35616 -10.77362 36005 ft 491 kts 78°
2026-05-06 16:54 36.36945 -10.69053 36003 ft 491 kts 78°
2026-05-06 16:54 36.38263 -10.60733 36004 ft 491 kts 78°
2026-05-06 16:55 36.39561 -10.52467 36003 ft 492 kts 78°
2026-05-06 16:55 36.40879 -10.44132 36000 ft 492 kts 78°
2026-05-06 16:56 36.42194 -10.35789 35997 ft 492 kts 78°
2026-05-06 16:56 36.43494 -10.27441 35993 ft 493 kts 78°
2026-05-06 16:57 36.44790 -10.19090 35995 ft 493 kts 79°
2026-05-06 16:57 36.46078 -10.10721 35990 ft 493 kts 79°
2026-05-06 16:58 36.47352 -10.02348 35990 ft 493 kts 79°
2026-05-06 16:58 36.48627 -9.93967 35985 ft 494 kts 79°
2026-05-06 16:59 36.49907 -9.85588 35986 ft 494 kts 79°
2026-05-06 16:59 36.51178 -9.77201 35976 ft 494 kts 80°
2026-05-06 17:00 36.52445 -9.68805 35974 ft 495 kts 80°
2026-05-06 17:00 36.53707 -9.60391 35970 ft 495 kts 80°
2026-05-06 17:01 36.54966 -9.51978 35970 ft 495 kts 80°
2026-05-06 17:01 36.56216 -9.43552 35834 ft 496 kts 80°
2026-05-06 17:01 36.56839 -9.39328 35584 ft 496 kts 80°
2026-05-06 17:02 36.57461 -9.35099 35329 ft 497 kts 80°
2026-05-06 17:02 36.58083 -9.30873 35088 ft 497 kts 81°
2026-05-06 17:02 36.58701 -9.26644 34846 ft 497 kts 81°
2026-05-06 17:02 36.59318 -9.22413 34601 ft 497 kts 81°
2026-05-06 17:03 36.59934 -9.18182 34364 ft 497 kts 81°
2026-05-06 17:03 36.60547 -9.13946 34080 ft 497 kts 81°
2026-05-06 17:03 36.61164 -9.09691 32939 ft 504 kts 81°
2026-05-06 17:03 36.61786 -9.05391 32003 ft 505 kts 80°
2026-05-06 17:04 36.62410 -9.01069 30914 ft 510 kts 80°
2026-05-06 17:04 36.63031 -8.96743 30122 ft 507 kts 79°
2026-05-06 17:04 36.63652 -8.92410 28970 ft 509 kts 80°
2026-05-06 17:04 36.64271 -8.88073 27810 ft 511 kts 80°
2026-05-06 17:05 36.64893 -8.83712 26638 ft 512 kts 80°
2026-05-06 17:05 36.65518 -8.79341 25458 ft 514 kts 80°
2026-05-06 17:05 36.66147 -8.74950 24266 ft 515 kts 81°
2026-05-06 17:05 36.66770 -8.70578 23406 ft 510 kts 81°
2026-05-06 17:06 36.67382 -8.66265 22499 ft 502 kts 81°
2026-05-06 17:06 36.67983 -8.62007 21650 ft 495 kts 81°
2026-05-06 17:06 36.68574 -8.57805 20840 ft 488 kts 81°
2026-05-06 17:06 36.69150 -8.53669 20051 ft 482 kts 81°
2026-05-06 17:07 36.69716 -8.49576 19272 ft 476 kts 81°
2026-05-06 17:07 36.70276 -8.45532 18537 ft 471 kts 82°
2026-05-06 17:07 36.70827 -8.41574 17338 ft 458 kts 81°
2026-05-06 17:07 36.71368 -8.37690 15915 ft 450 kts 81°
2026-05-06 17:08 36.71894 -8.33895 14571 ft 441 kts 82°
2026-05-06 17:08 36.72410 -8.30158 13243 ft 433 kts 81°
2026-05-06 17:08 36.72913 -8.26499 12363 ft 426 kts 82°
2026-05-06 17:08 36.73410 -8.22887 11898 ft 419 kts 82°
2026-05-06 17:09 36.73898 -8.19333 11262 ft 412 kts 82°
2026-05-06 17:09 36.74370 -8.15892 11109 ft 393 kts 81°
2026-05-06 17:09 36.74819 -8.12613 10970 ft 375 kts 81°
2026-05-06 17:09 36.75245 -8.09475 10858 ft 359 kts 82°
2026-05-06 17:10 36.75649 -8.06473 10734 ft 344 kts 81°
2026-05-06 17:10 36.76037 -8.03589 10608 ft 331 kts 82°
2026-05-06 17:10 36.76465 -8.00824 10487 ft 319 kts 76°
2026-05-06 17:10 36.77198 -7.98259 10324 ft 310 kts 68°
2026-05-06 17:11 36.78003 -7.95799 10149 ft 303 kts 68°
2026-05-06 17:11 36.78791 -7.93367 10031 ft 302 kts 69°
2026-05-06 17:11 36.79574 -7.90940 9904 ft 300 kts 69°
2026-05-06 17:11 36.80358 -7.88508 9371 ft 306 kts 68°
2026-05-06 17:12 36.81143 -7.86073 9105 ft 299 kts 68°
2026-05-06 17:12 36.81913 -7.83689 8701 ft 292 kts 68°
2026-05-06 17:12 36.82666 -7.81356 8058 ft 287 kts 67°
2026-05-06 17:12 36.83401 -7.79063 7459 ft 281 kts 66°
2026-05-06 17:13 36.84117 -7.76819 6853 ft 276 kts 67°
2026-05-06 17:13 36.84819 -7.74624 6289 ft 268 kts 66°
2026-05-06 17:13 36.85510 -7.72490 5603 ft 264 kts 62°
2026-05-06 17:13 36.86513 -7.70584 4991 ft 264 kts 44°
2026-05-06 17:14 36.87908 -7.69228 4910 ft 246 kts 27°
2026-05-06 17:14 36.89442 -7.68471 4845 ft 230 kts 12°
2026-05-06 17:14 36.90989 -7.68230 4739 ft 218 kts
2026-05-06 17:14 36.92457 -7.68071 4643 ft 213 kts
2026-05-06 17:15 36.93946 -7.67909 4525 ft 212 kts
2026-05-06 17:15 36.95377 -7.68094 4333 ft 211 kts 342°
2026-05-06 17:15 36.96665 -7.68984 4192 ft 215 kts 319°
2026-05-06 17:15 36.97570 -7.70453 3981 ft 215 kts 296°
2026-05-06 17:16 36.97961 -7.72263 3734 ft 217 kts 282°
2026-05-06 17:16 36.98224 -7.74108 3459 ft 214 kts 281°
2026-05-06 17:16 36.98486 -7.75940 3177 ft 213 kts 283°
2026-05-06 17:16 36.98747 -7.77757 2897 ft 212 kts 283°
2026-05-06 17:17 36.99007 -7.79564 2611 ft 210 kts 282°
2026-05-06 17:17 36.99260 -7.81328 2340 ft 201 kts 283°
2026-05-06 17:17 36.99501 -7.83014 2080 ft 193 kts 284°
2026-05-06 17:17 36.99730 -7.84611 1840 ft 179 kts 283°
2026-05-06 17:18 36.99938 -7.86067 1602 ft 163 kts 285°
2026-05-06 17:18 37.00129 -7.87401 1397 ft 150 kts 281°
2026-05-06 17:18 37.00304 -7.88636 1202 ft 143 kts 281°
2026-05-06 17:18 37.00477 -7.89839 1013 ft 139 kts 282°
2026-05-06 17:19 37.00646 -7.91009 831 ft 134 kts 280°
2026-05-06 17:19 37.00809 -7.92146 656 ft 133 kts 278°
2026-05-06 17:19 37.00973 -7.93271 473 ft 129 kts 281°
2026-05-06 17:19 37.01135 -7.94366 324 ft 128 kts 278°
2026-05-06 17:20 37.01284 -7.95462 133 ft 127 kts 276°
2026-05-06 17:20 37.01436 -7.96532 26 ft 116 kts 278°
2026-05-06 17:20 37.01549 -7.97360 20 ft 73 kts 280°
2026-05-06 17:20 37.01609 -7.97767 19 ft 23 kts 281°
2026-05-06 17:21 37.01664 -7.97861 20 ft 14 kts
2026-05-06 17:21 37.01734 -7.97788 20 ft 13 kts 61°
2026-05-06 17:21 37.01772 -7.97689 20 ft 14 kts 76°
2026-05-06 17:21 37.01759 -7.97510 20 ft 22 kts 98°
2026-05-06 17:22 37.01737 -7.97325 20 ft 21 kts 100°
2026-05-06 17:22 37.01709 -7.97147 20 ft 20 kts 101°
2026-05-06 17:22 37.01685 -7.96984 23 ft 16 kts 96°
2026-05-06 17:22 37.01742 -7.96900 20 ft 13 kts 12°
2026-05-06 17:23 37.01826 -7.96870 20 ft 11 kts 23°
2026-05-06 17:23 37.01896 -7.96852 20 ft 10 kts
2026-05-06 17:23 37.01914 -7.96848 20 ft 0 kts
2026-05-06 17:23 37.01917 -7.96847 20 ft 0 kts